User: anonymous
Location: Unspecified
(0.0000°N, 0.0000°E)
Time: 12:55:23
(UTC+00:00)
Language:

RISAT 1 - Orbit

View from above orbital plane
View from above orbital plane
View from above satellite
View from above satellite

Ground track
Ground track

The orbit data is extracted from the following two-line orbital elements,

1 38248U 12017A   14206.07359877  .00000135  00000-0  12516-4 0  5416
2 38248 097.5618 212.6990 0004141 093.9071 350.7886 15.08937749123670
Epoch (UTC): 25 July 2014 01:45:58
Eccentricity: 0.0004141
inclination: 97.5618°
perigee height: 536 km
apogee height: 542 km
right ascension of ascending node: 212.6990°
argument of perigee: 93.9071°
revolutions per day: 15.08937749
mean anomaly at epoch: 350.7886°
orbit number at epoch: 12367

The dashed part of the orbit path shows where the satellite is in the earth's shadow,  

DLR